伽利略0205星导航星座 (GSAT0205 (GALILEO 9))

导读 | 豆包AI

GALILEO 9 (205)是欧洲航天局(ESA)伽利略全球卫星导航系统的一颗中地球轨道卫星,于2015年9月11日发射升空。作为伽利略系统的组网卫星之一,它为全球用户提供高精度的定位、导航与授时服务,助力提升欧洲自主导航系统的全球覆盖能力和服务稳定性,在交通运输、测绘、应急救援等领域发挥关键支撑作用。

Basic Information
目录编号:
40889
目录名称:
GALILEO 9 (205)
国际标识:
2015-045A
轨道中心:
EARTH
卫星名称:
伽利略0205星
卫星全名:
伽利略0205星导航星座 (GSAT0205 (GALILEO 9))
卫星状态:
在轨 (已飞行3884 天)
发射日期:
2015-09-11 UTC
国别 :
(ESA)
星等 :
--
Orbit Information
数据来源 国际轨道数据 AOE轨道数据
星历时间 2026-04-25T23:10:52+0800
4天前
查看轨道信息
2026-04-25T09:00:00+0800
5天前
查看轨道信息
半长轴 29960.315km 29960.303km
偏心率 0.0005159 0.0004966
轨道倾角 54.961° 54.962°
近地点辐角 266.998° 268.151°
升交点赤经 223.176° 223.192°
平近点角 92.934° 95.658°
近地点 23566.721km 23567.287km
远地点 23597.635km 23597.045km
周期 860.160分钟 860.160分钟
每日圈数 1.674107 1.674108
Detailed Information
平衡模式:
三轴稳定
覆盖范围:
全球
运营商:
欧盟空间计划局
运营商所在国:
法国大都会
使用方式:
暂无
Satellite Introduction
伽利略定位系统(Galileo)是一个全球导航卫星系统,于2016年投入使用由欧盟通过ESA创建,由欧盟空间计划局(EUSPA)运营。该系统有两个地面操控站,并且在高纬度地区提供比其他系统更好的定位服务。该卫星仍在工作。
2D Orbit Map
3D Orbit Map
Orbit Altitude Analysis Chart
Orbit Inclination Analysis Chart
Orbit Comprehensive Analysis Chart
View Comprehensive Chart